Terminal Aerodrome Forecast
Issued by NWS Omaha/Valley, NE

Home | Current Version | Previous Version | Text Only | Print | Product List | Glossary Off
Versions: 1 2 3 4 5 6 7 8 9 10 11 12 13 14 15 16 17

000
FTUS43 KOAX 270249 AAF
TAFOFK
TAF AMD
KOFK 270249Z 2703/2724 08007KT 6SM BR BKN008 OVC015
      TEMPO 2703/2707 3SM -SHRA BR OVC008
     FM270700 VRB03KT 4SM BR OVC007
      TEMPO 2709/2713 1SM BR OVC003
     FM271600 18005KT P6SM BKN015
     FM271700 18006KT P6SM SCT020 SCT100=

USA.gov is the U.S. government's official web portal to all federal, state and local government web resources and services.